Location: Hurecourt
(47.9030°N, 6.0653°E)
Time: 09:18:55
(UTC+00:00)

Cosmos 1500 - Pass Details

Date: 14 July 2020
Orbit: 498 x 521 km, 82.5° (Epoch: 05 August)

Event Time Altitude Azimuth Distance (km) Brightness Sun altitude
Exits shadow 00:58:24 27° 139° (SE) 1,000 4.3 -18.4°
Maximum altitude 00:59:49 39° 93° (E) 786 4.2 -18.3°
Drops below altitude 10° 01:03:22 10° 24° (NNE) 1,736 7.1 -18.1°
Sets 01:05:34 0° 17° (NNE) 2,622 8.5 -18.0°
